NK0V Weather Reports


Display with metric or nautical units.
time (UTC)temp
F
wind
direction
speed
MPH
gust
MPH
rain 1hr
in
rain 24hr
in
rain mn
in
humidity
%
barometer
mb
20260906234600 67 55 1.0 5.0 0.00 1.95 1.95 92 1015.9
20260906234056 67 0 0.0 10.0 0.00 1.95 1.95 92 1016.0
20260906233555 67 56 1.0 10.0 0.00 1.95 1.95 92 1016.0
20260906233118 67 61 2.0 10.0 0.00 1.95 1.95 93 1015.9
20260906232555 67 30 2.0 8.0 0.00 1.95 1.95 93 1015.7
20260906232055 67 25 2.0 4.0 0.00 1.95 1.95 93 1015.7
20260906231559 67 21 2.0 4.0 0.00 1.95 1.95 93 1015.5
20260906231059 67 0 1.0 6.0 0.00 1.95 1.95 93 1015.4
20260906230559 67 0 1.0 6.0 0.01 1.95 1.95 93 1015.4
20260906230111 66 101 1.0 6.0 0.01 1.95 1.95 93 1015.2
20260906225559 66 59 3.0 8.0 0.02 1.95 1.95 93 1015.1
20260906225059 66 0 1.0 8.0 0.03 1.95 1.95 93 1014.9
20260906224616 66 31 1.0 6.0 0.04 1.95 1.95 93 1014.7
20260906224058 66 40 1.0 4.0 0.05 1.95 1.95 93 1014.9
20260906223559 66 14 1.0 3.0 0.07 1.95 1.95 93 1014.9
20260906223106 66 355 1.0 3.0 0.08 1.95 1.95 93 1015.0
20260906222600 65 27 1.0 2.0 0.09 1.95 1.95 93 1015.0
20260906222059 65 0 0.0 2.0 0.09 1.95 1.95 93 1015.0
20260906221605 65 71 0.0 3.0 0.09 1.95 1.95 93 1015.4
20260906221055 64 0 0.0 3.0 0.09 1.94 1.94 93 1015.7
20260906220600 64 0 0.0 3.0 0.09 1.94 1.94 92 1016.0
20260906220100 64 0 0.0 5.0 0.09 1.94 1.94 92 1016.4
20260906215556 64 100 1.0 5.0 0.09 1.93 1.93 92 1016.6
20260906215056 64 206 1.0 7.0 0.08 1.92 1.92 92 1016.8
20260906214603 64 233 1.0 7.0 0.09 1.91 1.91 92 1017.2
20260906214103 64 216 2.0 6.0 0.09 1.90 1.90 92 1017.5
20260906213559 65 125 1.0 8.0 0.08 1.88 1.88 91 1017.8
20260906213103 65 184 2.0 8.0 0.08 1.87 1.87 92 1018.1
20260906212558 65 205 3.0 12.0 0.09 1.86 1.86 92 1018.3
20260906212100 65 227 3.0 12.0 0.10 1.86 1.86 91 1018.5
20260906211607 65 231 4.0 12.0 0.10 1.86 1.86 91 1019.0
20260906211059 65 173 5.0 11.0 0.09 1.85 1.85 91 1019.3
20260906210559 65 226 2.0 6.0 0.09 1.85 1.85 91 1019.2
20260906210107 65 218 1.0 6.0 0.09 1.85 1.85 91 1019.1
20260906205559 65 162 0.0 6.0 0.08 1.84 1.84 91 1019.1
20260906205058 65 269 1.0 8.0 0.08 1.84 1.84 91 1018.9
20260906204610 65 0 1.0 8.0 0.07 1.82 1.82 91 1018.9
20260906204059 65 271 3.0 11.0 0.06 1.81 1.81 91 1018.9
20260906203559 65 259 5.0 12.0 0.07 1.80 1.80 91 1018.7
20260906203104 65 250 3.0 12.0 0.09 1.79 1.79 91 1019.0
20260906202557 65 280 4.0 9.0 0.11 1.77 1.77 90 1019.0
20260906202059 65 254 3.0 8.0 0.14 1.76 1.76 90 1018.9
20260906201622 65 267 2.0 11.0 0.19 1.76 1.76 90 1018.5
20260906201055 65 273 2.0 11.0 0.25 1.76 1.76 89 1018.1
20260906200556 65 211 2.0 8.0 0.31 1.76 1.76 89 1017.9
20260906195557 66 196 3.0 9.0 0.51 1.76 1.76 88 1018.2
20260906195056 66 177 1.0 9.0 0.67 1.76 1.76 88 1018.2
20260906194559 66 159 0.0 3.0 0.84 1.75 1.75 88 1018.3
20260906194057 66 158 0.0 4.0 1.08 1.74 1.74 87 1018.7
20260906193556 66 0 0.0 6.0 1.39 1.73 1.73 87 1019.0
20260906193103 66 265 2.0 8.0 1.57 1.70 1.70 87 1019.3
20260906192556 67 269 2.0 9.0 1.61 1.66 1.66 86 1019.4
20260906192056 67 223 3.0 17.0 1.57 1.62 1.62 85 1019.4
20260906191600 68 156 4.0 17.0 1.52 1.57 1.57 85 1019.5
20260906191056 68 146 5.0 16.0 1.46 1.51 1.51 84 1019.5
20260906190600 69 116 7.0 18.0 1.40 1.45 1.45 83 1018.9
20260906190111 70 138 8.0 18.0 1.32 1.37 1.37 82 1018.5
20260906185601 70 107 6.0 17.0 1.20 1.25 1.25 81 1018.6
20260906185056 71 135 8.0 20.0 1.04 1.09 1.09 80 1018.7
20260906184604 72 126 10.0 24.0 0.85 0.90 0.90 79 1018.8
20260906184057 73 109 10.0 24.0 0.60 0.65 0.65 79 1018.9
20260906183557 74 131 13.0 24.0 0.29 0.34 0.34 77 1018.6
20260906183114 75 114 6.0 16.0 0.07 0.12 0.12 78 1018.2
20260906182558 76 117 6.0 17.0 0.00 0.05 0.05 78 1018.3
20260906182056 77 105 8.0 17.0 0.00 0.05 0.05 79 1017.9
20260906181600 77 125 8.0 17.0 0.00 0.05 0.05 80 1017.5
20260906181058 78 119 7.0 12.0 0.00 0.05 0.05 81 1017.4
20260906180557 78 34 5.0 12.0 0.00 0.05 0.05 82 1017.5
20260906180119 78 117 4.0 12.0 0.00 0.05 0.05 84 1017.5
20260906175557 78 116 3.0 12.0 0.00 0.05 0.05 85 1017.5
20260906175057 78 94 3.0 12.0 0.00 0.05 0.05 86 1017.7
20260906174601 78 96 2.0 12.0 0.00 0.05 0.05 87 1017.8
20260906174057 78 136 2.0 8.0 0.00 0.05 0.05 88 1017.9
20260906173601 78 118 2.0 8.0 0.00 0.05 0.05 88 1017.8
20260906173116 78 82 3.0 8.0 0.00 0.05 0.05 89 1017.9
20260906172556 78 98 3.0 8.0 0.00 0.05 0.05 89 1017.9
20260906172100 78 105 2.0 6.0 0.00 0.05 0.05 90 1017.8
20260906171600 78 137 2.0 6.0 0.00 0.05 0.05 90 1017.8
20260906171055 77 150 1.0 6.0 0.00 0.05 0.05 90 1017.7
20260906170559 77 116 1.0 7.0 0.00 0.05 0.05 90 1017.5
20260906170126 77 119 2.0 8.0 0.00 0.05 0.05 90 1017.4
20260906165559 77 182 1.0 8.0 0.00 0.05 0.05 90 1017.5
20260906165058 77 202 2.0 8.0 0.00 0.05 0.05 90 1017.6
20260906164602 77 167 1.0 7.0 0.00 0.05 0.05 91 1017.7
20260906164059 77 117 2.0 7.0 0.00 0.05 0.05 91 1017.6
20260906163555 77 166 1.0 6.0 0.00 0.05 0.05 91 1017.6
20260906163101 77 144 1.0 11.0 0.01 0.05 0.05 91 1017.3
20260906162559 76 119 2.0 11.0 0.01 0.05 0.05 91 1017.3
20260906162056 76 81 2.0 7.0 0.01 0.05 0.05 91 1017.2
20260906161606 76 120 2.0 7.0 0.02 0.05 0.05 91 1017.2
20260906161059 76 104 1.0 7.0 0.05 0.05 0.05 91 1017.2
20260906160556 76 105 2.0 5.0 0.05 0.05 0.05 91 1017.1
20260906160104 76 0 2.0 5.0 0.05 0.05 0.05 91 1017.1
20260906155559 76 125 1.0 4.0 0.05 0.05 0.05 91 1017.1
20260906155058 76 131 2.0 6.0 0.05 0.05 0.05 91 1017.3
20260906154602 76 116 2.0 6.0 0.05 0.05 0.05 91 1017.3
20260906154059 76 119 1.0 8.0 0.05 0.05 0.05 91 1017.3
20260906153559 76 117 2.0 8.0 0.05 0.05 0.05 91 1017.2
20260906153101 76 146 2.0 5.0 0.04 0.04 0.04 91 1017.3
20260906152559 76 122 1.0 4.0 0.04 0.04 0.04 91 1017.4
20260906152059 76 0 1.0 7.0 0.04 0.04 0.04 91 1017.3
20260906151611 76 157 1.0 9.0 0.03 0.03 0.03 91 1017.4
20260906151059 76 122 3.0 9.0 0.00 0.00 0.00 91 1017.2
20260906150559 76 137 1.0 4.0 0.00 0.00 0.00 92 1017.4
20260906150107 76 90 1.0 7.0 0.00 0.00 0.00 92 1017.5
20260906145600 76 192 2.0 7.0 0.00 0.00 0.00 92 1017.4
20260906145100 76 139 1.0 4.0 0.00 0.00 0.00 92 1017.3
20260906144601 76 102 1.0 7.0 0.00 0.00 0.00 92 1017.2
20260906144058 76 125 2.0 8.0 0.00 0.00 0.00 92 1017.2
20260906143559 76 109 2.0 8.0 0.00 0.00 0.00 92 1017.1
20260906143130 76 113 2.0 8.0 0.00 0.00 0.00 92 1017.0
20260906142602 75 109 2.0 8.0 0.00 0.00 0.00 92 1017.0
20260906142057 75 157 2.0 8.0 0.00 0.00 0.00 92 1016.9
20260906141604 75 103 2.0 6.0 0.00 0.00 0.00 92 1017.0
20260906141059 75 117 2.0 6.0 0.00 0.00 0.00 92 1017.0
20260906140556 75 118 2.0 7.0 0.00 0.00 0.00 92 1017.0
20260906140108 75 162 2.0 13.0 0.00 0.00 0.00 92 1016.9
20260906135559 75 140 3.0 13.0 0.00 0.00 0.00 92 1016.9
20260906135101 75 121 2.0 8.0 0.00 0.00 0.00 92 1016.8
20260906134613 75 96 3.0 7.0 0.00 0.00 0.00 92 1016.9
20260906134057 75 134 2.0 6.0 0.00 0.00 0.00 92 1017.0
20260906133556 74 109 2.0 9.0 0.00 0.00 0.00 92 1017.0
20260906133108 74 111 2.0 9.0 0.00 0.00 0.00 92 1017.1
20260906132557 74 98 3.0 9.0 0.00 0.00 0.00 92 1017.0
20260906132059 74 118 2.0 6.0 0.00 0.00 0.00 92 1017.0
20260906131558 74 107 2.0 6.0 0.00 0.00 0.00 92 1017.1
20260906131056 74 98 2.0 7.0 0.00 0.00 0.00 92 1017.1
20260906130556 74 78 2.0 7.0 0.00 0.00 0.00 92 1017.2
20260906130115 74 133 2.0 6.0 0.00 0.00 0.00 92 1017.1
20260906125556 74 138 2.0 6.0 0.00 0.11 0.00 92 1017.2
20260906125100 74 144 2.0 6.0 0.00 0.11 0.00 92 1017.2
20260906124602 74 126 2.0 9.0 0.00 0.11 0.00 92 1017.1
20260906124100 74 153 2.0 9.0 0.00 0.11 0.00 92 1017.0
20260906123559 74 96 2.0 7.0 0.00 0.11 0.00 92 1016.8
20260906123137 74 104 3.0 7.0 0.00 0.11 0.00 92 1016.8
20260906122559 74 117 2.0 6.0 0.00 0.11 0.00 92 1016.7
20260906122101 74 88 3.0 8.0 0.00 0.11 0.00 92 1016.6
20260906121604 73 132 2.0 8.0 0.00 0.11 0.00 92 1016.5
20260906121059 73 148 2.0 7.0 0.00 0.11 0.00 92 1016.5
20260906120559 73 129 3.0 7.0 0.00 0.11 0.00 92 1016.3
20260906120109 73 113 2.0 6.0 0.00 0.11 0.00 92 1016.3
20260906115559 73 122 2.0 6.0 0.00 0.22 0.00 92 1016.3
20260906115055 73 122 3.0 8.0 0.00 0.22 0.00 92 1016.3
20260906114610 73 92 3.0 9.0 0.00 0.22 0.00 92 1016.2
20260906114058 73 105 2.0 9.0 0.00 0.22 0.00 92 1016.3
20260906113559 73 119 3.0 8.0 0.00 0.22 0.00 92 1016.3
20260906113101 73 122 3.0 6.0 0.00 0.22 0.00 92 1016.2
20260906112559 73 97 3.0 7.0 0.00 0.22 0.00 92 1016.2
20260906112059 73 98 3.0 7.0 0.00 0.22 0.00 91 1016.1
20260906111601 73 118 3.0 7.0 0.00 0.22 0.00 91 1016.1
20260906111059 73 110 3.0 7.0 0.00 0.22 0.00 91 1016.1
20260906110559 73 127 2.0 6.0 0.00 0.22 0.00 91 1016.1
20260906110100 73 103 2.0 5.0 0.00 0.22 0.00 91 1016.2
20260906105601 73 96 2.0 6.0 0.00 0.24 0.00 91 1016.3
20260906105058 72 108 2.0 6.0 0.00 0.24 0.00 91 1016.2
20260906104600 72 109 2.0 6.0 0.00 0.24 0.00 91 1016.1
20260906104056 72 100 2.0 6.0 0.00 0.24 0.00 91 1016.1
20260906103559 72 115 2.0 7.0 0.00 0.24 0.00 91 1016.1
20260906103101 72 74 2.0 7.0 0.00 0.24 0.00 91 1016.0
20260906102602 72 46 2.0 6.0 0.00 0.24 0.00 91 1016.1
20260906102058 72 128 2.0 6.0 0.00 0.24 0.00 91 1016.0
20260906101601 72 96 2.0 6.0 0.00 0.24 0.00 91 1016.0
20260906101058 72 75 2.0 6.0 0.00 0.24 0.00 90 1016.0
20260906100558 72 97 2.0 6.0 0.00 0.24 0.00 91 1016.1
20260906100106 72 106 2.0 6.0 0.00 0.24 0.00 90 1016.1
20260906095600 72 82 2.0 4.0 0.00 0.24 0.00 90 1016.1
20260906095059 72 96 2.0 4.0 0.00 0.24 0.00 90 1016.1
20260906094608 71 86 1.0 4.0 0.00 0.24 0.00 90 1016.2
20260906094059 71 97 1.0 3.0 0.00 0.24 0.00 90 1016.1
20260906093559 71 77 1.0 4.0 0.00 0.24 0.00 90 1016.1
20260906093102 71 102 1.0 4.0 0.00 0.24 0.00 90 1016.1
20260906092559 71 90 1.0 3.0 0.00 0.24 0.00 90 1016.2
20260906092059 71 0 1.0 4.0 0.00 0.24 0.00 90 1016.3
20260906091608 71 120 1.0 4.0 0.00 0.24 0.00 90 1016.3
20260906091056 71 113 1.0 3.0 0.00 0.24 0.00 90 1016.3
20260906090559 71 122 1.0 4.0 0.00 0.24 0.00 89 1016.3
20260906085558 71 115 2.0 4.0 0.00 0.24 0.00 89 1016.3
20260906085059 71 87 2.0 3.0 0.00 0.24 0.00 89 1016.2
20260906084607 72 112 1.0 3.0 0.00 0.24 0.00 89 1016.2
20260906084056 72 85 1.0 3.0 0.00 0.24 0.00 89 1016.0
20260906083559 72 101 1.0 3.0 0.00 0.24 0.00 89 1015.8
20260906083105 72 80 1.0 3.0 0.00 0.24 0.00 89 1015.7
20260906082555 72 98 2.0 4.0 0.00 0.24 0.00 89 1015.6
20260906082055 72 110 2.0 4.0 0.00 0.24 0.00 89 1015.6
20260906081602 72 96 1.0 4.0 0.00 0.24 0.00 89 1015.5
20260906081055 72 107 1.0 4.0 0.00 0.24 0.00 89 1015.6
20260906080559 72 119 1.0 5.0 0.00 0.24 0.00 89 1015.6
20260906080103 72 138 2.0 5.0 0.00 0.24 0.00 89 1015.5
20260906075600 72 113 2.0 5.0 0.00 0.24 0.00 89 1015.4
20260906075059 72 121 2.0 6.0 0.00 0.24 0.00 89 1015.4
20260906074607 72 117 2.0 6.0 0.00 0.24 0.00 89 1015.5
20260906074056 72 123 3.0 6.0 0.00 0.24 0.00 89 1015.5
20260906073600 72 107 2.0 6.0 0.00 0.24 0.00 89 1015.6
20260906073105 72 104 2.0 6.0 0.00 0.24 0.00 89 1015.6
20260906072559 72 107 2.0 7.0 0.00 0.24 0.00 89 1015.7
20260906072059 72 90 2.0 7.0 0.00 0.24 0.00 89 1015.8
20260906071600 71 101 2.0 6.0 0.00 0.24 0.00 89 1015.8
20260906071058 71 100 2.0 6.0 0.00 0.24 0.00 89 1015.7
20260906070559 71 100 2.0 6.0 0.00 0.24 0.00 88 1015.7
20260906070103 71 90 3.0 6.0 0.00 0.24 0.00 88 1015.7
20260906065555 71 91 2.0 5.0 0.00 0.24 0.00 88 1015.8
20260906065058 71 109 2.0 7.0 0.00 0.24 0.00 88 1015.9
20260906064602 71 100 2.0 7.0 0.00 0.24 0.00 88 1016.1
20260906064057 71 104 2.0 6.0 0.00 0.24 0.00 87 1016.1
20260906063558 71 77 2.0 6.0 0.00 0.24 0.00 87 1016.2
20260906063103 71 80 2.0 6.0 0.00 0.24 0.00 87 1016.1
20260906062558 70 96 1.0 4.0 0.00 0.24 0.00 87 1016.2
20260906062059 70 90 1.0 4.0 0.00 0.24 0.00 86 1016.2
20260906061603 70 90 1.0 6.0 0.00 0.24 0.00 86 1016.2
20260906061058 70 130 2.0 6.0 0.00 0.24 0.00 86 1016.1
20260906060559 70 106 2.0 4.0 0.00 0.24 0.00 86 1016.1
20260906060104 70 96 2.0 4.0 0.00 0.24 0.00 85 1016.1
20260906055559 70 96 1.0 3.0 0.00 0.24 0.00 85 1016.1
20260906055101 70 0 1.0 3.0 0.00 0.24 0.00 85 1016.2
20260906054601 71 123 1.0 3.0 0.00 0.24 0.00 85 1016.1
20260906054059 71 92 1.0 3.0 0.00 0.24 0.00 85 1016.2
20260906053558 71 98 1.0 3.0 0.00 0.24 0.00 85 1016.3
20260906053110 71 88 0.0 3.0 0.00 0.24 0.00 84 1016.3
20260906052559 71 105 0.0 2.0 0.00 0.24 0.00 84 1016.3
20260906052059 71 84 1.0 2.0 0.00 0.24 0.00 84 1016.3
20260906051605 71 90 0.0 2.0 0.00 0.24 0.00 84 1016.3
20260906051058 71 92 1.0 2.0 0.00 0.24 0.00 84 1016.3
20260906050600 71 101 1.0 2.0 0.00 0.24 0.00 85 1016.3
20260906050059 71 101 0.0 2.0 0.00 0.24 0.00 84 1016.3
20260906045559 71 101 1.0 2.0 0.00 0.24 0.24 84 1016.4
20260906045056 71 101 1.0 2.0 0.00 0.24 0.24 84 1016.3
20260906044601 71 115 1.0 3.0 0.00 0.24 0.24 84 1016.3
20260906044058 71 109 1.0 3.0 0.00 0.24 0.24 84 1016.3
20260906043559 71 0 1.0 4.0 0.00 0.24 0.24 84 1016.4
20260906043104 71 124 1.0 4.0 0.00 0.24 0.24 83 1016.4
20260906042602 72 119 1.0 3.0 0.00 0.24 0.24 83 1016.4
20260906042059 72 119 2.0 4.0 0.00 0.24 0.24 83 1016.5
20260906041603 72 95 2.0 4.0 0.00 0.24 0.24 83 1016.4
20260906041059 72 115 1.0 3.0 0.00 0.24 0.24 83 1016.4
20260906040602 72 87 1.0 3.0 0.00 0.24 0.24 82 1016.5
20260906040110 72 87 1.0 3.0 0.00 0.24 0.24 81 1016.5
20260906035558 72 89 1.0 2.0 0.00 0.24 0.24 81 1016.4
20260906035103 72 87 1.0 2.0 0.00 0.24 0.24 81 1016.3
20260906034607 72 101 1.0 2.0 0.00 0.24 0.24 81 1016.4
20260906034059 73 101 1.0 3.0 0.00 0.24 0.24 81 1016.4
20260906033559 73 101 1.0 3.0 0.00 0.24 0.24 81 1016.3
20260906033111 73 105 1.0 3.0 0.00 0.24 0.24 80 1016.3
20260906032558 73 85 1.0 2.0 0.00 0.24 0.24 80 1016.3
20260906032058 73 89 1.0 3.0 0.00 0.24 0.24 80 1016.3
20260906031614 73 100 1.0 3.0 0.00 0.24 0.24 80 1016.3
20260906031102 73 75 1.0 3.0 0.00 0.24 0.24 79 1016.3
20260906030559 74 79 1.0 3.0 0.00 0.24 0.24 79 1016.2
20260906030100 74 101 1.0 3.0 0.00 0.24 0.24 79 1016.2
20260906025559 74 99 1.0 3.0 0.00 0.24 0.24 78 1016.2
20260906025059 74 119 1.0 4.0 0.00 0.24 0.24 78 1016.2
20260906024601 74 107 2.0 6.0 0.00 0.24 0.24 78 1016.2
20260906024102 74 112 2.0 7.0 0.00 0.24 0.24 78 1016.2
20260906023559 74 119 2.0 7.0 0.00 0.24 0.24 77 1016.1
20260906023104 75 109 2.0 4.0 0.00 0.24 0.24 76 1016.1
20260906022555 75 107 1.0 3.0 0.00 0.24 0.24 76 1016.1
20260906022102 75 104 1.0 3.0 0.00 0.24 0.24 75 1016.0
20260906021605 75 103 1.0 3.0 0.00 0.24 0.24 75 1015.9
20260906021058 76 103 1.0 3.0 0.00 0.24 0.24 74 1015.8
20260906020555 76 99 1.0 3.0 0.00 0.24 0.24 74 1015.8
20260906020125 76 93 1.0 3.0 0.00 0.24 0.24 73 1015.7
20260906015556 77 93 1.0 3.0 0.00 0.24 0.24 73 1015.7
20260906015059 77 89 1.0 6.0 0.00 0.24 0.24 72 1015.8
20260906014604 77 95 2.0 6.0 0.00 0.24 0.24 72 1015.8
20260906014059 78 92 2.0 4.0 0.00 0.24 0.24 71 1015.8
20260906013601 78 97 2.0 4.0 0.00 0.24 0.24 71 1015.8
20260906013111 79 104 2.0 4.0 0.00 0.24 0.24 70 1015.8
20260906012559 79 88 1.0 4.0 0.00 0.24 0.24 69 1015.7
20260906012058 80 94 2.0 4.0 0.00 0.24 0.24 68 1015.7
20260906011609 80 98 1.0 3.0 0.00 0.24 0.24 68 1015.7
20260906011055 81 103 1.0 3.0 0.00 0.24 0.24 67 1015.8
20260906010600 81 93 1.0 3.0 0.00 0.24 0.24 66 1015.7
20260906005558 82 126 2.0 4.0 0.00 0.24 0.24 64 1015.6
20260906005059 82 91 1.0 3.0 0.00 0.24 0.24 63 1015.7
20260906004609 83 96 1.0 3.0 0.00 0.24 0.24 63 1015.6
20260906004059 83 103 1.0 3.0 0.00 0.24 0.24 62 1015.7
20260906003558 84 97 2.0 3.0 0.00 0.24 0.24 61 1015.7
20260906003106 84 82 1.0 7.0 0.00 0.24 0.24 60 1015.6
20260906002559 84 103 2.0 8.0 0.00 0.24 0.24 59 1015.5
20260906002055 85 90 3.0 8.0 0.00 0.24 0.24 59 1015.4
20260906001604 85 120 3.0 7.0 0.00 0.24 0.24 59 1015.3
20260906001057 85 107 3.0 7.0 0.00 0.24 0.24 60 1015.1
20260906000559 85 111 3.0 8.0 0.00 0.24 0.24 59 1015.1
20260906000107 86 115 3.0 10.0 0.00 0.24 0.24 59 1015.0
20260905235556 86 111 4.0 10.0 0.00 0.24 0.24 58 1015.0
20260905235059 86 175 3.0 10.0 0.00 0.24 0.24 57 1014.9